#�ϑ�����,���ϕ���,���ϕ���,�ő啗��,�ő啗����������,�ő�u�ԕ���,�ő�u�ԕ�����������
#(�N����),(m/s)   ,(16����),(m/s)   ,(16����)        ,(m/s)       ,(16����)            
2014/5/10 0:01,1.7,9,1.7,7,2.7,9
2014/5/10 0:02,1.6,9,1.7,9,3.3,2
2014/5/10 0:03,1.7,8,1.7,9,4.8,7
2014/5/10 0:04,1.7,8,1.7,11,4.4,8
2014/5/10 0:05,1.6,8,1.7,12,3.8,9
2014/5/10 0:06,1.5,7,1.6,11,1.9,5
2014/5/10 0:07,1.6,7,1.6,11,3.7,3
2014/5/10 0:08,1.7,7,1.8,10,6,2
2014/5/10 0:09,1.9,7,1.9,7,5.7,16
2014/5/10 0:10,2.1,7,2.1,7,4.7,13
2014/5/10 0:11,2.5,5,2.5,6,8.7,1
2014/5/10 0:12,2.8,5,2.8,5,7.9,2
2014/5/10 0:13,2.7,3,2.8,5,2.7,1
2014/5/10 0:14,2.7,3,2.8,5,3.2,3
2014/5/10 0:15,2.7,3,2.7,5,3.1,2
2014/5/10 0:16,2.8,2,2.8,5,4.4,2
2014/5/10 0:17,3,2,3,2,7.4,1
2014/5/10 0:18,3,1,3,2,6,15
2014/5/10 0:19,2.9,1,3,2,3.1,15
2014/5/10 0:20,2.8,2,2.9,2,4.2,1
2014/5/10 0:21,2.5,2,2.8,2,2.9,5
2014/5/10 0:22,2.3,2,2.4,2,3,5
2014/5/10 0:23,2.6,2,2.6,2,10.8,1
2014/5/10 0:24,2.7,2,2.7,2,7.7,16
2014/5/10 0:25,2.8,2,2.8,2,5.1,11
2014/5/10 0:26,2.8,2,2.9,2,4.9,12
2014/5/10 0:27,2.7,1,2.9,2,8.7,2
2014/5/10 0:28,2.8,2,2.8,1,8.4,1
2014/5/10 0:29,3.1,1,3.1,1,10.5,1
2014/5/10 0:30,3.6,1,3.6,1,12.7,16
2014/5/10 0:31,3.8,16,3.8,1,5.8,14
2014/5/10 0:32,3.9,16,4,16,6,15
2014/5/10 0:33,3.5,16,3.9,16,2.7,16
2014/5/10 0:34,3.5,16,3.5,16,5.1,1
2014/5/10 0:35,3.6,1,3.7,16,10.9,2
2014/5/10 0:36,3.6,1,3.6,16,3.5,2
2014/5/10 0:37,3.4,1,3.6,16,3.1,6
2014/5/10 0:38,3.3,1,3.5,16,5.1,3
2014/5/10 0:39,3,1,3.3,16,4.5,14
2014/5/10 0:40,2.6,1,2.9,16,6.3,16
2014/5/10 0:41,2.4,2,2.6,16,2.9,10
2014/5/10 0:42,2.2,2,2.4,16,2.4,2
2014/5/10 0:43,2.4,2,2.4,16,4.2,3
2014/5/10 0:44,2.4,3,2.4,16,4.9,2
2014/5/10 0:45,2.3,2,2.4,1,5.5,1
2014/5/10 0:46,2.7,2,2.7,1,9.7,2
2014/5/10 0:47,3,2,3,1,8.6,2
2014/5/10 0:48,3,1,3,1,6.1,16
2014/5/10 0:49,3,1,3,2,3.7,14
2014/5/10 0:50,2.8,1,3,2,3.1,15
2014/5/10 0:51,2.7,1,2.8,2,1.3,3
2014/5/10 0:52,2.9,1,2.9,2,5.8,3
2014/5/10 0:53,2.9,1,2.9,2,4.9,2
2014/5/10 0:54,3,1,3,2,8.9,1
2014/5/10 0:55,3.1,1,3.1,1,7.9,2
2014/5/10 0:56,2.9,1,3.1,1,7.6,2
2014/5/10 0:57,2.6,1,2.8,1,3.6,15
2014/5/10 0:58,2.4,1,2.6,1,2.1,16
2014/5/10 0:59,2.4,1,2.4,1,3.2,1
2014/5/10 1:00,2.5,2,2.5,1,3.9,5
2014/5/10 1:01,2.5,2,2.5,1,2.2,6
2014/5/10 1:02,2.4,2,2.5,1,3.1,16
2014/5/10 1:03,2.3,2,2.4,1,3.3,4
2014/5/10 1:04,2,2,2.3,1,1,5
2014/5/10 1:05,1.8,2,2,1,5,3
2014/5/10 1:06,1.7,2,1.8,1,5.5,3
2014/5/10 1:07,1.8,3,1.8,1,4.7,3
2014/5/10 1:08,2,3,2,2,5.4,3
2014/5/10 1:09,2.1,3,2.1,2,4.8,2
2014/5/10 1:10,2.2,3,2.2,2,4.4,16
2014/5/10 1:11,2.3,2,2.3,2,5.1,15
2014/5/10 1:12,2.4,2,2.4,2,6.2,16
2014/5/10 1:13,2.5,2,2.6,2,7,16
2014/5/10 1:14,2.6,2,2.6,2,3.3,2
2014/5/10 1:15,2.6,2,2.6,2,3.3,1
2014/5/10 1:16,2.5,1,2.6,2,3.2,1
2014/5/10 1:17,2.4,1,2.5,2,3,1
2014/5/10 1:18,2.2,16,2.4,2,3.1,2
2014/5/10 1:19,2.2,16,2.2,2,6.8,16
2014/5/10 1:20,2.2,16,2.2,2,7.7,3
2014/5/10 1:21,2.7,1,2.7,1,9.4,3
2014/5/10 1:22,2.6,1,2.7,1,6.8,2
2014/5/10 1:23,2.6,1,2.6,1,5.5,14
2014/5/10 1:24,2.7,1,2.7,1,6.5,14
2014/5/10 1:25,2.8,1,2.8,1,6.2,16
2014/5/10 1:26,3,16,3,16,7.2,16
2014/5/10 1:27,3.1,16,3.1,16,4.3,16
2014/5/10 1:28,3.1,16,3.2,16,2.5,1
2014/5/10 1:29,3,1,3.1,16,2.1,3
2014/5/10 1:30,2.9,1,3,16,5.6,3
2014/5/10 1:31,2.5,1,2.9,16,3.1,3
2014/5/10 1:32,2.3,1,2.5,16,1.5,15
2014/5/10 1:33,2.2,1,2.3,16,3.6,2
2014/5/10 1:34,2,1,2.1,16,1.8,2
2014/5/10 1:35,1.9,1,2,16,3.7,1
2014/5/10 1:36,1.7,1,1.9,16,4.4,16
2014/5/10 1:37,1.7,1,1.7,16,3.9,1
2014/5/10 1:38,1.8,1,1.8,16,2.9,15
2014/5/10 1:39,1.7,1,1.8,1,2.7,15
2014/5/10 1:40,1.5,1,1.7,1,2.6,4
2014/5/10 1:41,1.3,16,1.5,1,1.3,15
2014/5/10 1:42,1.3,1,1.3,1,1,6
2014/5/10 1:43,1.2,1,1.3,1,1.8,7
2014/5/10 1:44,1.2,16,1.2,1,1.6,11
2014/5/10 1:45,1.2,15,1.3,1,2.1,10
2014/5/10 1:46,1.1,11,1.2,1,1.8,9
2014/5/10 1:47,0.9,11,1.1,1,1.6,11
2014/5/10 1:48,0.8,10,0.9,1,1.1,12
2014/5/10 1:49,0.9,10,0.9,1,0.9,11
2014/5/10 1:50,0.8,10,0.9,1,1,9
2014/5/10 1:51,0.8,9,0.8,16,1.5,5
2014/5/10 1:52,1,9,1,1,2.9,4
2014/5/10 1:53,1,9,1,15,1.9,5
2014/5/10 1:54,1.1,9,1.1,15,2.4,5
2014/5/10 1:55,1,8,1.1,15,1.9,8
2014/5/10 1:56,0.9,8,1,11,1.5,8
2014/5/10 1:57,0.9,8,1,9,2,8
2014/5/10 1:58,1,8,1,9,2.2,12
2014/5/10 1:59,1.2,8,1.2,8,3,13
2014/5/10 2:00,1.3,9,1.3,8,3.2,12
2014/5/10 2:01,1.4,10,1.4,9,2.6,12
2014/5/10 2:02,1.3,11,1.4,9,2.1,11
2014/5/10 2:03,1.6,11,1.6,11,4.7,10
2014/5/10 2:04,1.7,11,1.7,11,4.2,12
2014/5/10 2:05,1.8,12,1.8,12,2.4,11
2014/5/10 2:06,1.9,12,1.9,12,2.7,13
2014/5/10 2:07,1.9,12,1.9,12,1,13
2014/5/10 2:08,1.7,12,1.9,12,1.1,13
2014/5/10 2:09,1.6,12,1.7,12,2.4,12
2014/5/10 2:10,1.5,12,1.6,12,1.8,13
2014/5/10 2:11,1.5,12,1.5,12,2.1,16
2014/5/10 2:12,1.5,12,1.5,12,2.1,14
2014/5/10 2:13,1.3,12,1.5,12,2.2,11
2014/5/10 2:14,1.2,12,1.3,12,2.2,12
2014/5/10 2:15,1,12,1.1,12,1.1,15
2014/5/10 2:16,0.9,12,1,12,1.3,14
2014/5/10 2:17,1,12,1,12,1.3,12
2014/5/10 2:18,1,13,1,12,0.8,12
2014/5/10 2:19,0.9,12,1,12,0.8,13
2014/5/10 2:20,1,12,1,12,1.8,11
2014/5/10 2:21,0.9,12,1,12,2.5,11
2014/5/10 2:22,0.9,12,0.9,12,1.4,2
2014/5/10 2:23,0.9,13,0.9,12,2.2,15
2014/5/10 2:24,1,14,1,12,2.6,2
2014/5/10 2:25,1.2,14,1.2,14,2.7,1
2014/5/10 2:26,1.3,14,1.3,14,4.2,16
2014/5/10 2:27,1.5,15,1.5,15,2.9,13
2014/5/10 2:28,1.7,15,1.7,15,5.8,15
2014/5/10 2:29,2,15,2,15,6.3,16
2014/5/10 2:30,2.2,16,2.2,16,4.2,1
2014/5/10 2:31,2.2,16,2.2,16,3.1,1
2014/5/10 2:32,2.3,16,2.3,16,3,16
2014/5/10 2:33,2.4,16,2.4,16,2.6,13
2014/5/10 2:34,2.4,15,2.4,16,3.3,14
2014/5/10 2:35,2.4,15,2.4,16,3.3,16
2014/5/10 2:36,2.3,15,2.4,16,2.7,15
2014/5/10 2:37,2.2,15,2.3,16,2.6,16
2014/5/10 2:38,2.1,15,2.2,16,1.9,15
2014/5/10 2:39,1.8,15,2.1,16,1.3,13
2014/5/10 2:40,1.6,15,1.8,16,1.3,13
2014/5/10 2:41,1.5,14,1.6,16,1.4,14
2014/5/10 2:42,1.4,14,1.5,16,1.4,14
2014/5/10 2:43,1.4,14,1.4,16,1.3,1
2014/5/10 2:44,1.3,14,1.4,15,2.7,16
2014/5/10 2:45,1.2,15,1.3,15,1.9,16
2014/5/10 2:46,1.1,15,1.1,15,1.5,5
2014/5/10 2:47,1,14,1.1,15,1.9,11
2014/5/10 2:48,1,14,1,15,1.5,12
2014/5/10 2:49,1.1,14,1.1,15,2.2,15
2014/5/10 2:50,1.1,14,1.1,14,1.9,14
2014/5/10 2:51,1.1,14,1.1,14,1.9,13
2014/5/10 2:52,1.2,14,1.2,14,2.2,13
2014/5/10 2:53,1.3,14,1.3,14,2.2,14
2014/5/10 2:54,1.2,14,1.3,14,2.2,1
2014/5/10 2:55,1.3,14,1.3,14,2.4,2
2014/5/10 2:56,1.3,15,1.3,14,1.6,3
2014/5/10 2:57,1.4,15,1.4,15,2.5,16
2014/5/10 2:58,1.4,16,1.4,15,2.9,15
2014/5/10 2:59,1.6,16,1.6,16,5.4,15
2014/5/10 3:00,1.7,16,1.7,16,3.2,16
2014/5/10 3:01,1.6,1,1.7,16,1.3,4
2014/5/10 3:02,1.5,1,1.6,16,1.8,1
2014/5/10 3:03,1.5,1,1.5,16,2.6,15
2014/5/10 3:04,1.6,1,1.6,16,3.9,3
2014/5/10 3:05,1.6,1,1.6,16,2.7,2
2014/5/10 3:06,1.7,1,1.7,16,1.9,3
2014/5/10 3:07,1.7,1,1.7,16,2.1,2
2014/5/10 3:08,1.7,1,1.7,16,2.1,15
2014/5/10 3:09,1.6,1,1.6,16,2.7,13
2014/5/10 3:10,1.6,16,1.6,16,3,14
2014/5/10 3:11,1.7,16,1.7,1,2.2,14
2014/5/10 3:12,1.8,16,1.8,16,1.8,16
2014/5/10 3:13,1.7,16,1.8,16,2.6,15
2014/5/10 3:14,1.8,16,1.8,16,5,1
2014/5/10 3:15,2,16,2,16,6.2,16
2014/5/10 3:16,2.1,16,2.1,15,5.6,16
2014/5/10 3:17,2.3,16,2.3,16,5.8,2
2014/5/10 3:18,2.5,16,2.5,16,5.5,16
2014/5/10 3:19,2.4,16,2.5,16,3.2,15
2014/5/10 3:20,2.5,16,2.5,16,5.1,16
2014/5/10 3:21,2.5,16,2.5,16,3.8,16
2014/5/10 3:22,2.7,1,2.7,1,6.4,16
2014/5/10 3:23,2.8,1,2.8,1,3.9,3
2014/5/10 3:24,2.6,1,2.8,1,3.2,1
2014/5/10 3:25,2.5,16,2.6,1,2.7,14
2014/5/10 3:26,2.2,16,2.4,1,2.5,13
2014/5/10 3:27,2.1,16,2.2,1,3.2,16
2014/5/10 3:28,2,16,2.1,1,3,15
2014/5/10 3:29,1.9,16,1.9,1,1.5,15
2014/5/10 3:30,1.6,16,1.9,1,1.3,2
2014/5/10 3:31,1.5,16,1.6,1,0.9,15
2014/5/10 3:32,1.3,16,1.5,1,1.3,9
2014/5/10 3:33,1,15,1.2,1,1.3,16
2014/5/10 3:34,1.2,15,1.2,1,3.3,15
2014/5/10 3:35,1.1,15,1.2,16,2.7,16
2014/5/10 3:36,1,15,1.1,16,0.6,15
2014/5/10 3:37,0.8,14,1,16,0.8,7
2014/5/10 3:38,0.7,13,0.8,16,0.8,7
2014/5/10 3:39,0.6,12,0.7,16,0.8,6
2014/5/10 3:40,0.7,9,0.7,16,1.5,8
2014/5/10 3:41,0.7,10,0.7,16,1.3,9
2014/5/10 3:42,0.7,11,0.7,15,1.1,14
2014/5/10 3:43,0.8,11,0.8,15,1,12
2014/5/10 3:44,0.7,11,0.8,15,1.4,11
2014/5/10 3:45,0.6,11,0.7,15,1.3,14
2014/5/10 3:46,0.7,10,0.7,15,2,6
2014/5/10 3:47,0.7,10,0.8,14,1.5,8
2014/5/10 3:48,0.8,11,0.8,11,1.6,3
2014/5/10 3:49,0.8,12,0.8,11,1.3,14
2014/5/10 3:50,0.8,12,0.8,11,1.8,9
2014/5/10 3:51,0.8,12,0.8,11,1.5,8
2014/5/10 3:52,0.7,12,0.8,11,0.5,10
2014/5/10 3:53,0.7,9,0.7,11,1,5
2014/5/10 3:54,0.7,7,0.7,10,1.9,10
2014/5/10 3:55,0.8,6,0.8,10,1.5,8
2014/5/10 3:56,0.8,5,0.8,10,3.2,2
2014/5/10 3:57,0.9,4,0.9,5,2.9,1
2014/5/10 3:58,1,4,1,4,3.3,2
2014/5/10 3:59,1.1,4,1.1,4,3.7,3
2014/5/10 4:00,1.1,4,1.1,4,3,15
2014/5/10 4:01,1.1,4,1.1,4,0.6,4
2014/5/10 4:02,1.1,4,1.1,4,0.6,2
2014/5/10 4:03,1.2,4,1.2,4,3.9,4
2014/5/10 4:04,1.3,3,1.3,4,5,2
2014/5/10 4:05,1.6,3,1.6,3,5.2,16
2014/5/10 4:06,1.7,3,1.7,3,4.4,1
2014/5/10 4:07,1.8,3,1.8,3,2.9,2
2014/5/10 4:08,1.7,3,1.8,3,2.2,2
2014/5/10 4:09,1.7,3,1.8,3,3.9,5
2014/5/10 4:10,1.9,3,1.9,3,4.7,16
2014/5/10 4:11,2.1,3,2.1,3,4.2,3
2014/5/10 4:12,2.3,2,2.3,3,3.8,4
2014/5/10 4:13,2.4,2,2.4,3,4.1,4
2014/5/10 4:14,2.4,2,2.4,3,4.5,5
2014/5/10 4:15,2.4,2,2.4,3,7,2
2014/5/10 4:16,2.4,2,2.4,3,5.4,2
2014/5/10 4:17,2.6,3,2.6,3,5,4
2014/5/10 4:18,2.8,3,2.8,3,3.5,5
2014/5/10 4:19,2.7,3,2.8,3,2.5,5
2014/5/10 4:20,2.5,3,2.7,3,1.6,3
2014/5/10 4:21,2.4,4,2.5,3,1.1,4
2014/5/10 4:22,2.2,4,2.3,3,1.4,9
2014/5/10 4:23,2.1,4,2.2,3,3,8
2014/5/10 4:24,2,5,2.1,3,1.9,8
2014/5/10 4:25,1.7,6,2,3,1.8,9
2014/5/10 4:26,1.5,7,1.7,3,1,10
2014/5/10 4:27,1.1,8,1.5,3,1.1,10
2014/5/10 4:28,0.9,8,1.1,3,1.3,8
2014/5/10 4:29,0.9,8,0.9,3,2,7
2014/5/10 4:30,1,8,1,3,2.9,9
2014/5/10 4:31,1.1,9,1.1,4,2.7,13
2014/5/10 4:32,1.1,9,1.1,4,2,14
2014/5/10 4:33,1,10,1.1,4,1.5,10
2014/5/10 4:34,1,9,1,5,1.6,7
2014/5/10 4:35,1.1,9,1.1,6,2.2,7
2014/5/10 4:36,1.2,8,1.2,7,2.1,7
2014/5/10 4:37,1.3,8,1.3,8,2.7,9
2014/5/10 4:38,1.5,8,1.5,8,6.8,3
2014/5/10 4:39,1.8,7,1.8,7,6.4,5
2014/5/10 4:40,2,6,2,6,4.9,6
2014/5/10 4:41,2,6,2,6,3.8,3
2014/5/10 4:42,2.1,5,2.1,6,3.3,2
2014/5/10 4:43,2.2,5,2.2,5,2.1,16
2014/5/10 4:44,2.2,4,2.2,5,2.2,16
2014/5/10 4:45,2.1,3,2.2,5,1.8,16
2014/5/10 4:46,2.1,2,2.1,5,2.5,16
2014/5/10 4:47,2.1,2,2.1,5,2.4,16
2014/5/10 4:48,1.9,1,2.1,5,2,13
2014/5/10 4:49,1.6,1,1.9,5,2,1
2014/5/10 4:50,1.3,1,1.6,5,1.3,3
2014/5/10 4:51,1.3,1,1.3,5,2.6,4
2014/5/10 4:52,1.3,1,1.3,5,3.2,16
2014/5/10 4:53,1.4,1,1.4,5,3.7,1
2014/5/10 4:54,1.4,1,1.4,4,2.4,2
2014/5/10 4:55,1.4,2,1.4,3,5.4,4
2014/5/10 4:56,1.7,3,1.7,2,6.4,4
2014/5/10 4:57,2,3,2,2,7.1,4
2014/5/10 4:58,2.2,4,2.2,3,5,3
2014/5/10 4:59,2.2,4,2.2,3,2.4,7
2014/5/10 5:00,2.3,4,2.3,4,3.1,5
2014/5/10 5:01,2.2,4,2.3,4,1,4
2014/5/10 5:02,2,4,2.2,4,1.1,2
2014/5/10 5:03,1.8,4,2,4,0.8,16
2014/5/10 5:04,1.8,4,1.8,4,1.3,1
2014/5/10 5:05,1.7,4,1.8,4,1.8,4
2014/5/10 5:06,1.4,4,1.6,4,2.4,10
2014/5/10 5:07,1.1,4,1.4,4,1.9,8
2014/5/10 5:08,0.8,5,1,4,0.5,10
2014/5/10 5:09,0.8,6,0.8,4,1.6,10
2014/5/10 5:10,0.7,6,0.8,4,1,12
2014/5/10 5:11,0.7,8,0.7,4,1.5,10
2014/5/10 5:12,0.7,9,0.7,4,1.4,9
2014/5/10 5:13,0.7,10,0.7,4,0.5,12
2014/5/10 5:14,0.7,10,0.7,4,0.6,12
2014/5/10 5:15,0.7,10,0.7,4,1.1,2
2014/5/10 5:16,0.6,10,0.7,4,0.6,2
2014/5/10 5:17,0.7,11,0.7,4,4.7,4
2014/5/10 5:18,0.7,11,0.7,5,2.5,5
2014/5/10 5:19,0.8,13,0.8,6,3.9,16
2014/5/10 5:20,0.9,14,0.9,13,3.1,15
2014/5/10 5:21,0.9,15,0.9,13,1.6,15
2014/5/10 5:22,1,15,1,15,2.5,7
2014/5/10 5:23,1.1,1,1.1,16,2.5,8
2014/5/10 5:24,1.2,4,1.2,4,2.1,8
2014/5/10 5:25,1.1,6,1.2,4,1.3,11
2014/5/10 5:26,1.2,10,1.2,4,2,13
2014/5/10 5:27,1.2,11,1.3,10,1.8,13
2014/5/10 5:28,1.2,11,1.2,10,1.3,11
2014/5/10 5:29,1,11,1.2,10,0.8,14
2014/5/10 5:30,0.9,10,1,10,0.8,5
2014/5/10 5:31,0.9,9,0.9,10,1.8,3
2014/5/10 5:32,0.9,9,0.9,10,1.6,3
2014/5/10 5:33,0.7,14,0.9,10,0.5,16
2014/5/10 5:34,0.7,16,0.7,10,0.5,6
2014/5/10 5:35,0.7,1,0.7,10,1.1,8
2014/5/10 5:36,0.6,3,0.7,10,1.5,8
2014/5/10 5:37,0.6,4,0.6,11,1.3,5
2014/5/10 5:38,0.6,3,0.6,11,1.8,16
2014/5/10 5:39,0.7,3,0.7,11,1.5,16
2014/5/10 5:40,0.7,2,0.7,10,0.8,15
2014/5/10 5:41,0.6,1,0.7,9,0.3,12
2014/5/10 5:42,0.5,1,0.6,9,0.8,7
2014/5/10 5:43,0.7,7,0.7,14,2.1,8
2014/5/10 5:44,0.8,8,0.8,7,2.4,8
2014/5/10 5:45,0.9,9,0.9,9,1.9,10
2014/5/10 5:46,1,9,1,9,2.6,9
2014/5/10 5:47,1,9,1,9,1.9,8
2014/5/10 5:48,1,9,1.1,9,2,8
2014/5/10 5:49,1.1,9,1.1,9,1.6,9
2014/5/10 5:50,1.2,9,1.2,9,3.5,9
2014/5/10 5:51,1.3,9,1.3,9,2.6,3
2014/5/10 5:52,1.4,9,1.4,9,2.9,15
2014/5/10 5:53,1.5,9,1.5,9,3.3,16
2014/5/10 5:54,1.5,9,1.5,9,3,1
2014/5/10 5:55,1.5,10,1.5,9,2.9,16
2014/5/10 5:56,1.5,13,1.5,9,3,16
2014/5/10 5:57,1.5,14,1.5,9,1.6,15
2014/5/10 5:58,1.4,15,1.4,9,1.5,9
2014/5/10 5:59,1.4,16,1.4,9,2.2,8
2014/5/10 6:00,1.4,15,1.4,9,3.1,8
2014/5/10 6:01,1.4,15,1.4,9,2,8
2014/5/10 6:02,1.5,13,1.5,9,3.1,9
2014/5/10 6:03,1.6,10,1.6,10,4.9,9
2014/5/10 6:04,1.7,10,1.7,10,4.4,9
2014/5/10 6:05,1.6,9,1.7,10,3.2,8
2014/5/10 6:06,1.5,9,1.6,10,1.6,8
2014/5/10 6:07,1.6,9,1.6,10,2.9,12
2014/5/10 6:08,1.8,10,1.8,9,4.1,12
2014/5/10 6:09,1.7,10,1.8,9,2.2,9
2014/5/10 6:10,1.8,10,1.8,9,3.9,10
2014/5/10 6:11,2,10,2,10,4.1,9
2014/5/10 6:12,2,10,2,10,3.8,9
2014/5/10 6:13,1.8,10,2,10,1.8,7
2014/5/10 6:14,1.8,9,1.8,10,3,8
2014/5/10 6:15,1.8,9,1.8,10,2.6,10
2014/5/10 6:16,2,9,2,10,3.1,10
2014/5/10 6:17,1.9,9,2,10,2.1,13
2014/5/10 6:18,1.8,9,1.9,10,2.2,13
2014/5/10 6:19,1.9,9,1.9,10,2.9,7
2014/5/10 6:20,1.8,9,1.9,10,3.5,8
2014/5/10 6:21,1.8,9,1.8,10,3.1,9
2014/5/10 6:22,1.6,9,1.8,10,2.7,8
2014/5/10 6:23,1.8,9,1.8,9,4.1,8
2014/5/10 6:24,1.8,9,1.8,9,3.6,8
2014/5/10 6:25,1.8,10,1.8,9,2.6,9
2014/5/10 6:26,1.8,10,1.8,9,3.8,10
2014/5/10 6:27,1.9,10,1.9,9,3.2,10
2014/5/10 6:28,1.8,9,1.9,9,2,8
2014/5/10 6:29,1.9,9,1.9,9,4.8,9
2014/5/10 6:30,2,9,2,9,4.8,8
2014/5/10 6:31,2,9,2,9,3.3,9
2014/5/10 6:32,2.1,9,2.1,9,3,9
2014/5/10 6:33,1.9,9,2,9,2.4,9
2014/5/10 6:34,1.8,9,1.9,9,2.4,8
2014/5/10 6:35,1.7,9,1.8,9,2.2,8
2014/5/10 6:36,1.5,9,1.7,9,0.8,9
2014/5/10 6:37,1.4,9,1.5,9,2.1,8
2014/5/10 6:38,1.6,9,1.6,9,3.3,9
2014/5/10 6:39,1.6,9,1.7,9,4.9,9
2014/5/10 6:40,1.5,9,1.6,9,3.8,9
2014/5/10 6:41,1.4,9,1.5,9,1.9,9
2014/5/10 6:42,1.4,9,1.4,9,2,10
2014/5/10 6:43,1.4,9,1.4,9,2.2,10
2014/5/10 6:44,1.5,10,1.5,9,2.5,11
2014/5/10 6:45,1.5,10,1.5,9,2.7,10
2014/5/10 6:46,1.6,10,1.6,9,1.5,10
2014/5/10 6:47,1.6,10,1.6,9,1.9,10
2014/5/10 6:48,1.4,10,1.6,9,0.9,9
2014/5/10 6:49,1.1,10,1.4,9,0.9,8
2014/5/10 6:50,1,10,1.1,9,1.4,13
2014/5/10 6:51,1,11,1,9,1.5,13
2014/5/10 6:52,1,11,1,9,1.6,13
2014/5/10 6:53,0.9,11,1,9,1.6,10
2014/5/10 6:54,0.8,11,0.9,9,1.1,10
2014/5/10 6:55,0.7,11,0.8,9,1,9
2014/5/10 6:56,0.8,11,0.8,10,1,9
2014/5/10 6:57,0.7,11,0.7,10,1.1,11
2014/5/10 6:58,0.8,11,0.8,10,2,12
2014/5/10 6:59,1,11,1,10,2,12
2014/5/10 7:00,1,11,1,10,1.4,12
2014/5/10 7:01,1,10,1,11,1.6,7
2014/5/10 7:02,1,10,1,11,2,7
2014/5/10 7:03,1,10,1,11,2.4,8
2014/5/10 7:04,1.1,9,1.1,10,2.7,8
2014/5/10 7:05,1.2,9,1.2,9,2,8
2014/5/10 7:06,1.2,9,1.2,9,1.5,8
2014/5/10 7:07,1.1,9,1.2,9,1,6
2014/5/10 7:08,1,8,1.1,9,0.6,11
2014/5/10 7:09,0.9,8,1,9,0.8,9
2014/5/10 7:10,0.9,8,0.9,9,1.9,7
2014/5/10 7:11,0.9,8,0.9,9,1.6,8
2014/5/10 7:12,0.9,8,0.9,9,1.6,8
2014/5/10 7:13,0.8,8,0.9,9,1.9,10
2014/5/10 7:14,0.7,8,0.8,9,1.8,9
2014/5/10 7:15,0.8,9,0.8,9,2,10
2014/5/10 7:16,0.7,9,0.7,9,2.2,10
2014/5/10 7:17,0.8,9,0.8,9,1.8,9
2014/5/10 7:18,0.8,9,0.8,8,1.8,11
2014/5/10 7:19,0.9,10,0.9,8,2.1,10
2014/5/10 7:20,1,10,1,10,2,10
2014/5/10 7:21,1,10,1,10,2.1,11
2014/5/10 7:22,1.1,11,1.1,11,2.6,11
2014/5/10 7:23,1.2,11,1.2,11,2.4,10
2014/5/10 7:24,1.3,12,1.3,11,2.4,13
2014/5/10 7:25,1.4,12,1.4,12,2.4,13
2014/5/10 7:26,1.5,12,1.5,12,1.9,12
2014/5/10 7:27,1.5,12,1.5,12,1.8,12
2014/5/10 7:28,1.5,12,1.6,12,1.6,11
2014/5/10 7:29,1.5,12,1.5,12,1.3,10
2014/5/10 7:30,1.5,12,1.5,12,3.8,10
2014/5/10 7:31,1.6,12,1.6,12,3.3,9
2014/5/10 7:32,1.5,11,1.6,12,3.3,9
2014/5/10 7:33,1.5,11,1.5,12,3,10
2014/5/10 7:34,1.4,11,1.5,12,2.1,7
2014/5/10 7:35,1.4,10,1.4,12,2.7,9
2014/5/10 7:36,1.3,10,1.4,12,2.1,9
2014/5/10 7:37,1.4,10,1.4,12,3.1,10
2014/5/10 7:38,1.5,10,1.5,12,3.6,10
2014/5/10 7:39,1.7,10,1.7,10,3.9,9
2014/5/10 7:40,1.6,10,1.7,10,2.9,7
2014/5/10 7:41,1.5,10,1.6,10,3.5,10
2014/5/10 7:42,1.6,10,1.6,10,5.1,11
2014/5/10 7:43,1.5,10,1.6,10,2.7,10
2014/5/10 7:44,1.6,10,1.6,10,3,10
2014/5/10 7:45,1.7,10,1.7,10,3.2,11
2014/5/10 7:46,1.8,11,1.8,10,2.4,11
2014/5/10 7:47,1.7,10,1.8,10,3,10
2014/5/10 7:48,1.8,10,1.8,10,4.3,10
2014/5/10 7:49,1.8,10,1.8,10,4.2,9
2014/5/10 7:50,2,10,2,10,4.2,8
2014/5/10 7:51,2.2,10,2.2,10,4.2,9
2014/5/10 7:52,2.1,10,2.2,10,3.6,10
2014/5/10 7:53,2.2,10,2.2,10,3.8,9
2014/5/10 7:54,2.2,9,2.2,10,3.2,10
2014/5/10 7:55,2.1,9,2.2,10,2.9,9
2014/5/10 7:56,2.2,9,2.2,10,3.3,10
2014/5/10 7:57,2.2,9,2.2,10,3.9,9
2014/5/10 7:58,2.2,9,2.2,10,4.4,8
2014/5/10 7:59,2.1,9,2.2,10,4.3,8
2014/5/10 8:00,2,9,2.1,10,3.5,9
2014/5/10 8:01,1.9,9,2,10,2.6,9
2014/5/10 8:02,1.9,9,1.9,10,2.7,8
2014/5/10 8:03,1.8,9,1.9,10,3.2,10
2014/5/10 8:04,1.8,9,1.9,9,3.5,11
2014/5/10 8:05,1.8,9,1.9,9,2.9,8
2014/5/10 8:06,1.9,9,1.9,9,3.1,9
2014/5/10 8:07,1.8,9,1.9,9,2.6,8
2014/5/10 8:08,1.6,9,1.8,9,2.5,10
2014/5/10 8:09,1.7,9,1.7,9,3.3,8
2014/5/10 8:10,1.7,9,1.7,9,3.2,7
2014/5/10 8:11,1.8,9,1.8,9,3,8
2014/5/10 8:12,1.8,9,1.8,9,2.5,9
2014/5/10 8:13,1.8,9,1.9,9,4.1,9
2014/5/10 8:14,1.8,9,1.8,9,3.3,9
2014/5/10 8:15,1.8,9,1.8,9,3,9
2014/5/10 8:16,1.8,9,1.8,9,2.7,9
2014/5/10 8:17,1.7,9,1.8,9,2.2,11
2014/5/10 8:18,1.7,9,1.7,9,2.6,9
2014/5/10 8:19,1.8,9,1.8,9,3.3,9
2014/5/10 8:20,1.7,9,1.8,9,3.3,9
2014/5/10 8:21,1.7,9,1.8,9,3.5,8
2014/5/10 8:22,1.8,9,1.8,9,2.9,9
2014/5/10 8:23,1.7,9,1.8,9,2.2,9
2014/5/10 8:24,1.6,9,1.7,9,2.7,8
2014/5/10 8:25,1.7,9,1.7,9,3.7,9
2014/5/10 8:26,1.7,9,1.7,9,3.7,9
2014/5/10 8:27,1.8,9,1.8,9,3.1,8
2014/5/10 8:28,1.8,9,1.8,9,2.9,10
2014/5/10 8:29,1.9,9,1.9,9,4.3,8
2014/5/10 8:30,2,9,2,9,4.1,8
2014/5/10 8:31,2,8,2,9,3.8,8
2014/5/10 8:32,1.9,8,2,9,2.4,10
2014/5/10 8:33,1.9,8,2,9,2.9,8
2014/5/10 8:34,2,8,2,9,2.2,10
2014/5/10 8:35,1.9,8,2,9,2.1,8
2014/5/10 8:36,1.8,8,1.9,9,2.2,7
2014/5/10 8:37,1.7,8,1.9,9,1.1,9
2014/5/10 8:38,1.7,8,1.7,9,2,8
2014/5/10 8:39,1.5,8,1.7,9,1.8,6
2014/5/10 8:40,1.4,8,1.5,9,2,7
2014/5/10 8:41,1.2,7,1.4,8,0.5,3
2014/5/10 8:42,1,7,1.1,8,1,12
2014/5/10 8:43,0.9,7,1,8,1.8,10
2014/5/10 8:44,0.9,7,0.9,8,2.2,8
2014/5/10 8:45,0.8,7,0.9,8,1.4,10
2014/5/10 8:46,0.7,7,0.8,8,1,13
2014/5/10 8:47,0.7,7,0.7,8,1,10
2014/5/10 8:48,0.6,7,0.7,8,0.9,10
2014/5/10 8:49,0.6,7,0.6,8,2.5,2
2014/5/10 8:50,0.7,5,0.7,8,2.5,2
2014/5/10 8:51,1,4,1,7,6.1,1
2014/5/10 8:52,1.3,2,1.3,2,5.8,1
2014/5/10 8:53,1.3,2,1.4,3,3.3,15
2014/5/10 8:54,1.5,2,1.5,2,3.6,3
2014/5/10 8:55,1.6,2,1.6,2,2.6,3
2014/5/10 8:56,1.6,2,1.6,2,1.4,2
2014/5/10 8:57,1.6,2,1.6,2,1.8,5
2014/5/10 8:58,1.8,2,1.8,2,3.6,2
2014/5/10 8:59,1.9,2,1.9,2,4.7,1
2014/5/10 9:00,1.9,2,1.9,2,2.2,1
2014/5/10 9:01,1.7,2,1.8,2,2.9,2
2014/5/10 9:02,1.5,2,1.7,2,3.2,4
2014/5/10 9:03,1.6,2,1.6,2,2.9,3
2014/5/10 9:04,1.5,2,1.6,2,3.2,2
2014/5/10 9:05,1.6,3,1.6,2,4.9,4
2014/5/10 9:06,1.8,3,1.8,2,4.7,4
2014/5/10 9:07,1.9,3,1.9,2,3,2
2014/5/10 9:08,2,3,2,3,4.2,4
2014/5/10 9:09,1.9,3,2,3,2.7,3
2014/5/10 9:10,1.9,3,1.9,3,2.5,1
2014/5/10 9:11,1.9,3,1.9,3,2.6,2
2014/5/10 9:12,1.9,2,1.9,3,2,16
2014/5/10 9:13,1.8,2,1.9,3,2.7,16
2014/5/10 9:14,1.9,2,1.9,3,2.5,16
2014/5/10 9:15,1.7,2,1.9,3,2.1,2
2014/5/10 9:16,1.5,1,1.7,3,1.5,2
2014/5/10 9:17,1.6,1,1.6,3,4.5,3
2014/5/10 9:18,1.5,1,1.6,3,3.1,2
2014/5/10 9:19,1.5,1,1.5,3,3.7,16
2014/5/10 9:20,1.6,1,1.6,3,4.3,1
2014/5/10 9:21,1.6,1,1.6,3,3.8,3
2014/5/10 9:22,1.9,2,1.9,2,7,4
2014/5/10 9:23,2,2,2,2,6.7,4
2014/5/10 9:24,1.9,2,2,2,2.2,16
2014/5/10 9:25,2.1,2,2.1,2,4.2,2
2014/5/10 9:26,2.1,2,2.1,2,4.2,3
2014/5/10 9:27,1.9,2,2.1,2,2.9,15
2014/5/10 9:28,2,2,2,2,5.5,2
2014/5/10 9:29,2.1,2,2.1,2,5.4,1
2014/5/10 9:30,2.1,2,2.1,2,4.2,14
2014/5/10 9:31,2.2,2,2.2,2,4.4,15
2014/5/10 9:32,2.1,1,2.2,2,5.8,16
2014/5/10 9:33,2.3,1,2.3,1,7.7,14
2014/5/10 9:34,2.5,1,2.5,1,6.2,16
2014/5/10 9:35,2.4,1,2.5,1,5.2,2
2014/5/10 9:36,2.6,16,2.6,16,6.4,16
2014/5/10 9:37,2.8,16,2.8,16,5.6,15
2014/5/10 9:38,2.7,16,2.8,16,3.8,15
2014/5/10 9:39,2.7,16,2.8,16,3.8,2
2014/5/10 9:40,2.8,16,2.8,16,4.4,2
2014/5/10 9:41,2.7,16,2.8,16,4.8,1
2014/5/10 9:42,2.7,16,2.7,16,5.2,1
2014/5/10 9:43,2.6,1,2.7,16,5.8,3
2014/5/10 9:44,2.7,1,2.7,16,6.5,3
2014/5/10 9:45,2.8,1,2.8,16,7,3
2014/5/10 9:46,2.8,1,2.8,16,4.9,16
2014/5/10 9:47,2.7,1,2.8,16,3.9,1
2014/5/10 9:48,2.7,1,2.7,16,5,2
2014/5/10 9:49,2.8,1,2.9,1,7,2
2014/5/10 9:50,2.9,2,2.9,1,6.4,1
2014/5/10 9:51,3,2,3,2,10.2,3
2014/5/10 9:52,3.2,2,3.2,2,7.4,4
2014/5/10 9:53,3.3,2,3.3,2,7.2,3
2014/5/10 9:54,3.3,2,3.3,2,5.5,3
2014/5/10 9:55,3.4,2,3.5,2,7,3
2014/5/10 9:56,3.6,2,3.6,2,6.3,2
2014/5/10 9:57,3.8,2,3.8,2,7.8,2
2014/5/10 9:58,3.9,2,3.9,2,5.7,2
2014/5/10 9:59,3.9,2,3.9,2,5.4,2
2014/5/10 10:00,4.1,3,4.1,3,7.1,3
2014/5/10 10:01,4.3,3,4.3,3,8.2,3
2014/5/10 10:02,4.3,3,4.3,3,6.7,2
2014/5/10 10:03,4.1,2,4.3,3,4.8,1
2014/5/10 10:04,3.9,2,4,3,3.8,3
2014/5/10 10:05,3.5,2,3.8,3,3.5,2
2014/5/10 10:06,3.3,2,3.5,3,2.7,16
2014/5/10 10:07,3,2,3.3,3,3.1,1
2014/5/10 10:08,2.8,2,3,3,2.6,2
2014/5/10 10:09,2.6,2,2.8,3,3.7,2
2014/5/10 10:10,2.6,2,2.6,3,5.4,1
2014/5/10 10:11,2.3,2,2.6,3,3.7,16
2014/5/10 10:12,2.1,2,2.3,3,4.4,1
2014/5/10 10:13,2.1,2,2.1,2,3.3,15
2014/5/10 10:14,2.1,1,2.2,2,2.6,16
2014/5/10 10:15,2.2,1,2.2,2,3.9,2
2014/5/10 10:16,2.5,2,2.5,2,6.2,1
2014/5/10 10:17,2.4,1,2.5,2,1.8,1
2014/5/10 10:18,2.3,2,2.4,2,1.1,6
2014/5/10 10:19,2.4,2,2.4,2,5.5,1
2014/5/10 10:20,2.3,1,2.4,2,5.4,2
2014/5/10 10:21,2.1,1,2.3,2,3.2,3
2014/5/10 10:22,2.2,2,2.2,2,6.2,3
2014/5/10 10:23,2.2,2,2.2,2,3.9,1
2014/5/10 10:24,2.3,2,2.3,2,3.8,16
2014/5/10 10:25,2.2,2,2.3,2,2.5,16
2014/5/10 10:26,1.9,2,2.2,2,3.1,1
2014/5/10 10:27,2,2,2,2,2.1,1
2014/5/10 10:28,2.2,2,2.2,2,5.7,2
2014/5/10 10:29,2.3,2,2.4,2,7.2,1
2014/5/10 10:30,2.2,2,2.3,2,6.4,15
2014/5/10 10:31,2.4,1,2.4,2,6.3,15
2014/5/10 10:32,2.5,1,2.5,1,5.7,16
2014/5/10 10:33,2.6,1,2.6,1,6,16
2014/5/10 10:34,2.5,1,2.6,1,4.8,16
2014/5/10 10:35,2.7,1,2.7,1,7.8,16
2014/5/10 10:36,3.1,1,3.1,1,10.1,16
2014/5/10 10:37,3.5,1,3.5,1,7.6,2
2014/5/10 10:38,3.5,16,3.6,16,6.9,16
2014/5/10 10:39,3.7,16,3.7,16,9.4,1
2014/5/10 10:40,3.9,16,3.9,16,9,1
2014/5/10 10:41,3.9,1,4,16,7,14
2014/5/10 10:42,3.9,16,3.9,16,5.7,1
2014/5/10 10:43,4,16,4,16,6.1,16
2014/5/10 10:44,4.1,16,4.1,16,5.6,15
2014/5/10 10:45,4.4,16,4.4,16,7.2,16
2014/5/10 10:46,4.5,16,4.5,16,9.4,16
2014/5/10 10:47,4.4,16,4.5,16,8.6,16
2014/5/10 10:48,4.7,16,4.7,16,9.1,15
2014/5/10 10:49,4.7,16,4.8,16,9.5,15
2014/5/10 10:50,4.9,16,4.9,16,9.2,16
2014/5/10 10:51,5,16,5,16,9.1,16
2014/5/10 10:52,5,16,5.1,16,7.8,15
2014/5/10 10:53,4.9,16,5,16,5,2
2014/5/10 10:54,5.1,16,5.1,16,12.6,15
2014/5/10 10:55,5.2,16,5.2,16,9.7,16
2014/5/10 10:56,5,16,5.2,16,7.1,1
2014/5/10 10:57,4.9,16,5,16,6.4,15
2014/5/10 10:58,4.8,16,4.9,16,9.3,16
2014/5/10 10:59,4.6,16,4.8,16,7.6,1
2014/5/10 11:00,4.5,16,4.7,16,11.4,16
2014/5/10 11:01,4.5,16,4.6,16,7.4,1
2014/5/10 11:02,4.4,1,4.4,16,6.2,14
2014/5/10 11:03,4.5,1,4.5,16,8.1,16
2014/5/10 11:04,4.6,16,4.7,16,10.1,16
2014/5/10 11:05,4.6,16,4.6,16,9.1,16
2014/5/10 11:06,4.6,16,4.6,16,7.6,1
2014/5/10 11:07,4.7,1,4.7,16,8.5,2
2014/5/10 11:08,4.6,1,4.7,16,7,1
2014/5/10 11:09,4.5,1,4.5,16,5.5,1
2014/5/10 11:10,4.1,1,4.4,16,4.9,16
2014/5/10 11:11,4.2,1,4.2,16,7.1,16
2014/5/10 11:12,4.3,1,4.3,16,8.7,16
2014/5/10 11:13,4.4,1,4.5,16,6.4,1
2014/5/10 11:14,4,1,4.3,1,5.5,16
2014/5/10 11:15,4,1,4.1,1,7.9,16
2014/5/10 11:16,3.8,1,3.9,1,5.4,1
2014/5/10 11:17,3.7,1,3.8,1,8.5,15
2014/5/10 11:18,3.7,16,3.7,1,6.8,15
2014/5/10 11:19,3.9,16,3.9,1,9.7,16
2014/5/10 11:20,4,16,4,1,8.2,16
2014/5/10 11:21,4.2,16,4.2,1,9.9,16
2014/5/10 11:22,4.2,1,4.2,1,8.3,15
2014/5/10 11:23,4.4,16,4.4,16,9.9,16
2014/5/10 11:24,4.6,16,4.6,16,9.7,15
2014/5/10 11:25,4.3,16,4.6,16,4.2,15
2014/5/10 11:26,4.3,16,4.3,16,7.5,2
2014/5/10 11:27,4.4,1,4.4,16,8.1,3